When you browse on this site, cookies collect data to enhance your experience and personalize the content and advertising you see.
Visit our Privacy Policy to learn more. By continuing to use the site, you agree to this use of cookies and data.
  • în România
  • Lista ţărilor
  • Pe 7 zile
  • Temperatura apei
  • Hartă satelitară
  • Meteo pe hartă
  • Widget-uri
  • user-avatar
    Intrare

    Meteo pe oră la Samos

    Astăzi, 26 Martie, Marţi

    Timp Temperatura Precipitaţii Vânt Presiune Umiditate
    00:00 +10°C° 0 mm 4 m/s 715 mmHg 64%
    01:00 +10°C° 0 mm 3 m/s 715 mmHg 65%
    02:00 +10°C° 0 mm 2 m/s 715 mmHg 67%
    03:00 +9°C° 0 mm 2 m/s 715 mmHg 68%
    04:00 +9°C° 0 mm 2 m/s 715 mmHg 68%
    05:00 +9°C° 0 mm 2 m/s 715 mmHg 69%
    06:00 +9°C° 0 mm 2 m/s 715 mmHg 66%
    07:00 +11°C° 0 mm 1 m/s 715 mmHg 63%
    08:00 +12°C° 0 mm 1 m/s 715 mmHg 59%
    09:00 +13°C° 0 mm 1 m/s 716 mmHg 56%
    10:00 +14°C° 0 mm 1 m/s 716 mmHg 52%
    11:00 +15°C° 0 mm 1 m/s 716 mmHg 49%
    12:00 +15°C° 0 mm 1 m/s 716 mmHg 50%
    13:00 +15°C° 0 mm 2 m/s 716 mmHg 51%
    14:00 +16°C° 0 mm 2 m/s 716 mmHg 52%
    15:00 +15°C° 0 mm 2 m/s 716 mmHg 54%
    16:00 +15°C° 0 mm 2 m/s 716 mmHg 57%
    17:00 +15°C° 0 mm 2 m/s 716 mmHg 60%
    18:00 +14°C° 0 mm 2 m/s 717 mmHg 64%
    19:00 +13°C° 0 mm 1 m/s 717 mmHg 68%
    20:00 +12°C° 0 mm 1 m/s 717 mmHg 72%
    21:00 +12°C° 0 mm 1 m/s 718 mmHg 74%
    22:00 +11°C° 0 mm 1 m/s 718 mmHg 75%
    23:00 +11°C° 0 mm 1 m/s 718 mmHg 77%

    Mâine, 27 Martie, Miercuri

    Timp Temperatura Precipitaţii Vânt Presiune Umiditate
    00:00 +11°C° 0 mm 1 m/s 719 mmHg 78%
    01:00 +11°C° 0 mm 1 m/s 719 mmHg 78%
    02:00 +11°C° 0 mm 1 m/s 719 mmHg 79%
    03:00 +10°C° 0 mm 1 m/s 719 mmHg 79%
    04:00 +10°C° 0 mm 1 m/s 719 mmHg 80%
    05:00 +10°C° 0 mm 1 m/s 720 mmHg 80%
    06:00 +11°C° 0 mm 1 m/s 720 mmHg 77%
    07:00 +11°C° 0 mm 1 m/s 720 mmHg 74%
    08:00 +12°C° 0 mm 2 m/s 721 mmHg 71%
    09:00 +13°C° 0 mm 1 m/s 721 mmHg 66%
    10:00 +14°C° 0 mm 1 m/s 722 mmHg 61%
    11:00 +16°C° 0 mm 1 m/s 722 mmHg 56%
    12:00 +16°C° 0 mm 2 m/s 722 mmHg 52%
    13:00 +16°C° 0 mm 2 m/s 722 mmHg 48%
    14:00 +17°C° 0 mm 3 m/s 722 mmHg 44%
    15:00 +16°C° 0 mm 3 m/s 722 mmHg 45%
    16:00 +15°C° 0 mm 4 m/s 722 mmHg 45%
    17:00 +14°C° 0 mm 4 m/s 722 mmHg 46%
    18:00 +13°C° 0 mm 4 m/s 722 mmHg 50%
    19:00 +13°C° 0 mm 4 m/s 722 mmHg 55%
    20:00 +12°C° 0 mm 4 m/s 722 mmHg 60%
    21:00 +12°C° 0 mm 3 m/s 722 mmHg 63%
    22:00 +11°C° 0 mm 3 m/s 722 mmHg 67%
    23:00 +11°C° 0 mm 3 m/s 722 mmHg 70%

    Poimâine, 28 Martie, Joi

    Timp Temperatura Precipitaţii Vânt Presiune Umiditate
    00:00 +11°C° 0 mm 3 m/s 722 mmHg 71%
    01:00 +11°C° 0 mm 3 m/s 722 mmHg 72%
    02:00 +11°C° 0 mm 3 m/s 722 mmHg 73%
    03:00 +10°C° 0 mm 3 m/s 721 mmHg 73%
    04:00 +10°C° 0 mm 3 m/s 721 mmHg 73%
    05:00 +10°C° 0 mm 3 m/s 721 mmHg 73%
    06:00 +10°C° 0 mm 3 m/s 721 mmHg 73%
    07:00 +10°C° 0 mm 3 m/s 721 mmHg 73%
    08:00 +10°C° 0 mm 3 m/s 721 mmHg 74%
    09:00 +10°C° 0.1 mm 3 m/s 721 mmHg 73%
    10:00 +10°C° 0.1 mm 3 m/s 721 mmHg 72%
    11:00 +11°C° 0.1 mm 3 m/s 721 mmHg 71%
    12:00 +11°C° 0.1 mm 3 m/s 721 mmHg 68%
    13:00 +13°C° 0.1 mm 2 m/s 721 mmHg 66%
    14:00 +13°C° 0.1 mm 2 m/s 721 mmHg 64%
    15:00 +13°C° 0.2 mm 2 m/s 720 mmHg 65%
    16:00 +13°C° 0.2 mm 2 m/s 720 mmHg 67%
    17:00 +12°C° 0.2 mm 3 m/s 720 mmHg 69%
    18:00 +11°C° 0.6 mm 3 m/s 720 mmHg 70%
    19:00 +10°C° 0.6 mm 4 m/s 720 mmHg 72%
    20:00 +9°C° 0.6 mm 5 m/s 720 mmHg 74%
    21:00 +8°C° 0.4 mm 5 m/s 720 mmHg 73%
    22:00 +7°C° 0.4 mm 6 m/s 720 mmHg 72%
    23:00 +5°C° 0.4 mm 6 m/s 720 mmHg 71%

    29 Martie, Vineri

    Timp Temperatura Precipitaţii Vânt Presiune Umiditate
    00:00 +5°C° 0.5 mm 7 m/s 719 mmHg 72%
    01:00 +4°C° 0.5 mm 7 m/s 719 mmHg 73%
    02:00 +4°C° 0.5 mm 7 m/s 719 mmHg 73%
    03:00 +4°C° 0.1 mm 8 m/s 719 mmHg 72%
    04:00 +2°C° 0.1 mm 8 m/s 718 mmHg 71%
    05:00 +2°C° 0.1 mm 9 m/s 718 mmHg 70%
    06:00 +2°C° 0 mm 9 m/s 718 mmHg 68%
    07:00 +2°C° 0 mm 9 m/s 718 mmHg 66%
    08:00 +2°C° 0 mm 9 m/s 718 mmHg 64%
    09:00 +3°C° 0 mm 9 m/s 718 mmHg 60%
    10:00 +5°C° 0 mm 10 m/s 718 mmHg 56%
    11:00 +7°C° 0 mm 10 m/s 718 mmHg 52%
    12:00 +7°C° 0 mm 10 m/s 717 mmHg 50%
    13:00 +8°C° 0 mm 11 m/s 717 mmHg 48%
    14:00 +9°C° 0 mm 11 m/s 716 mmHg 46%
    15:00 +9°C° 0 mm 11 m/s 716 mmHg 47%
    16:00 +9°C° 0 mm 12 m/s 716 mmHg 47%
    17:00 +9°C° 0 mm 12 m/s 715 mmHg 48%
    18:00 +8°C° 0 mm 13 m/s 716 mmHg 50%
    19:00 +7°C° 0 mm 13 m/s 716 mmHg 51%
    20:00 +7°C° 0 mm 13 m/s 716 mmHg 53%
    21:00 +5°C° 0 mm 13 m/s 716 mmHg 55%
    22:00 +4°C° 0 mm 12 m/s 716 mmHg 56%
    23:00 +4°C° 0 mm 12 m/s 716 mmHg 58%

    30 Martie, Sâmbătă

    Timp Temperatura Precipitaţii Vânt Presiune Umiditate
    00:00 +3°C° 0 mm 12 m/s 716 mmHg 59%
    01:00 +3°C° 0 mm 12 m/s 716 mmHg 59%
    02:00 +3°C° 0 mm 12 m/s 716 mmHg 59%
    03:00 +3°C° 0 mm 12 m/s 715 mmHg 60%
    04:00 +2°C° 0 mm 12 m/s 715 mmHg 60%
    05:00 +2°C° 0 mm 12 m/s 715 mmHg 61%
    06:00 +2°C° 0 mm 12 m/s 715 mmHg 59%
    07:00 +2°C° 0 mm 12 m/s 715 mmHg 57%
    08:00 +2°C° 0 mm 12 m/s 715 mmHg 56%
    09:00 +3°C° 0 mm 12 m/s 715 mmHg 52%
    10:00 +4°C° 0 mm 12 m/s 715 mmHg 49%
    11:00 +5°C° 0 mm 12 m/s 715 mmHg 46%
    12:00 +8°C° 0 mm 12 m/s 714 mmHg 44%
    13:00 +9°C° 0 mm 12 m/s 714 mmHg 42%
    14:00 +10°C° 0 mm 12 m/s 714 mmHg 39%
    15:00 +10°C° 0 mm 12 m/s 714 mmHg 41%
    16:00 +9°C° 0 mm 12 m/s 714 mmHg 43%
    17:00 +9°C° 0 mm 12 m/s 713 mmHg 45%
    18:00 +8°C° 0 mm 12 m/s 714 mmHg 50%
    19:00 +7°C° 0 mm 11 m/s 714 mmHg 54%
    20:00 +4°C° 0 mm 11 m/s 714 mmHg 59%
    21:00 +5°C° 0 mm 10 m/s 714 mmHg 61%
    22:00 +3°C° 0 mm 10 m/s 714 mmHg 63%
    23:00 +3°C° 0 mm 9 m/s 714 mmHg 65%

    31 Martie, Duminică

    Timp Temperatura Precipitaţii Vânt Presiune Umiditate
    00:00 +3°C° 0 mm 9 m/s 714 mmHg 65%
    01:00 +3°C° 0 mm 9 m/s 713 mmHg 66%
    02:00 +2°C° 0 mm 9 m/s 713 mmHg 66%
    03:00 +2°C° 0 mm 9 m/s 713 mmHg 67%
    04:00 +2°C° 0 mm 9 m/s 713 mmHg 68%
    05:00 +2°C° 0 mm 9 m/s 713 mmHg 69%
    06:00 +2°C° 0 mm 9 m/s 713 mmHg 68%
    07:00 +3°C° 0 mm 9 m/s 713 mmHg 66%
    08:00 +3°C° 0 mm 9 m/s 713 mmHg 65%
    09:00 +5°C° 0 mm 9 m/s 714 mmHg 62%
    10:00 +7°C° 0 mm 8 m/s 714 mmHg 58%
    11:00 +9°C° 0 mm 8 m/s 714 mmHg 54%
    12:00 +10°C° 0 mm 8 m/s 714 mmHg 53%
    13:00 +11°C° 0 mm 8 m/s 714 mmHg 52%
    14:00 +12°C° 0 mm 7 m/s 714 mmHg 51%
    15:00 +11°C° 0 mm 8 m/s 714 mmHg 53%
    16:00 +11°C° 0 mm 8 m/s 714 mmHg 55%
    17:00 +11°C° 0 mm 8 m/s 714 mmHg 57%
    18:00 +10°C° 0 mm 8 m/s 715 mmHg 59%
    19:00 +9°C° 0 mm 8 m/s 715 mmHg 61%
    20:00 +7°C° 0 mm 8 m/s 715 mmHg 63%
    21:00 +8°C° 0 mm 7 m/s 715 mmHg 64%
    22:00 +6°C° 0 mm 7 m/s 715 mmHg 65%
    23:00 +6°C° 0 mm 7 m/s 715 mmHg 65%
    Arată mai mult